Hourly Data Report for September 19, 2019

SAINT JOHN A
NEW BRUNSWICK
Current Station Operator: NAVCAN

45°18'58.000" N
65°53'24.000" W
108.80 m
8104901
71609
YSJ

Download Data

Hourly Data (September 2019)
Hourly Data Report for September 19, 2019
TIME
LST
Temp Definition
°C
Dew Point Definition
°C
Rel Hum Definition
%
Precip. Amount Definition
mm

Wind Dir Definition
10's deg

Wind Spd Definition
km/h
Visibility Definition
km
Stn Press Definition
kPa
Hmdx Definition


Wind Chill Definition


Weather Definition


00:00 1.0 1.0 100   34 5 24.1 101.37     LegendNANA
01:00 1.0 0.9 100   36 1 8.1 101.37     LegendNANA
02:00 1.2 1.2 100   36 2 0.8 101.35     Fog
03:00 0.1 0.1 100   36 1 0.8 101.30     Fog
04:00 0.6 0.6 100   6 3 0.2 101.31     Fog
05:00 -0.5 -0.5 100     0 1.6 101.32     Fog
06:00 0.0 0.0 100   36 5 24.1 101.30   -2 LegendNANA
07:00 1.5 1.2 98   0 1 24.1 101.35     LegendNANA
08:00 7.0 7.0 100   2 3 24.1 101.44     Mainly Clear
09:00 11.9 7.3 73   32 5 24.1 101.41     LegendNANA
10:00 14.3 7.1 62   32 3 24.1 101.36     LegendNANA
11:00
12:00 16.8 2.7 39   33 8 24.1 101.24     LegendNANA
13:00 17.6 2.5 36   32 5 24.1 101.17     LegendNANA
14:00 18.7 5.1 40   33 14 24.1 101.16     Mainly Clear
15:00 18.9 5.6 41   1 6 24.1 101.05     LegendNANA
16:00 17.8 7.9 52   20 17 24.1 101.02     LegendNANA
17:00 16.1 6.7 53   23 14 24.1 101.01     Mainly Clear
18:00 13.2 5.8 60   22 9 24.1 101.03     LegendNANA
19:00 10.6 5.9 73   20 5 24.1 101.04     LegendNANA
20:00 7.5 6.0 90   36 2 24.1 101.07     Clear
21:00 5.1 4.3 95   0 1 24.1 101.01     LegendNANA
22:00 4.0 3.9 100   5 3 24.1 100.97     LegendNANA
23:00 4.1 4.1 100   3 3 24.1 100.92     Mainly Clear

Notes on Data Quality.

Legend

  • E = Estimated
  • M = Missing
  • NA = Not Available*
  • [empty] = Indicates an unobserved value
Date modified: